Wind_Speed
15 16 17 16 15 16 17 18 18 22 26 29 31 34 35 35 36 36 36 38 40 40 41 42 41 41 42 42 43 43 43 41 39 38 38 37 36 35 35 34 33 32 33 33 34 34 33 32 30 29 29 29 28 28 27 25 23 22 21 21 20 21 22
13 14 16 15 16 18 19 18 19 22 26 28 31 34 35 36 36 37 37 38 40 41 41 42 42 42 42 42 42 42 42 41 40 38 37 37 37 36 36 35 35 34 34 34 34 34 33 31 30 29 29 30 29 28 28 26 25 24 23 21 21 23 23
12 14 15 16 17 19 19 18 19 23 27 29 30 32 35 38 40 40 39 38 39 40 40 40 42 42 42 41 41 41 41 41 40 38 37 38 38 36 35 35 35 35 35 35 34 34 33 32 30 29 30 30 30 29 29 28 26 25 24 22 23 24 25
13 15 16 17 18 17 17 17 18 24 29 31 33 35 37 41 42 42 41 40 39 40 41 42 42 42 42 41 41 40 41 41 40 40 39 38 37 36 35 35 35 35 35 35 35 34 33 32 30 29 30 31 30 30 30 29 27 26 25 24 25 26 25
14 14 14 15 16 15 15 16 18 23 29 32 35 36 39 41 40 39 40 41 41 42 43 43 41 40 40 40 41 40 41 42 41 40 39 37 36 35 36 37 36 36 36 36 35 34 33 32 31 30 30 31 31 31 31 30 29 27 26 26 27 27 26
14 13 13 15 16 16 17 18 21 26 31 34 36 37 38 38 36 37 39 40 41 41 41 40 39 39 39 39 40 39 39 40 41 40 39 38 37 36 37 38 37 37 37 36 35 35 34 33 32 31 31 32 32 32 32 31 30 29 28 28 29 29 27
13 12 13 15 15 16 18 19 20 27 33 34 35 36 35 35 35 38 39 39 41 40 39 39 40 40 39 39 39 39 39 39 40 40 39 38 38 38 38 38 38 38 37 37 36 35 35 34 33 33 32 33 34 34 33 33 32 31 30 30 31 31 29
13 12 13 15 15 15 17 17 18 23 29 30 30 30 32 33 35 36 37 39 40 39 39 41 41 41 41 39 39 39 39 39 39 40 40 39 39 38 38 38 38 38 37 37 37 36 36 36 35 34 34 34 35 35 35 34 34 32 32 32 33 32 31
13 12 13 14 14 13 14 15 16 19 23 26 28 30 32 34 34 36 38 39 38 38 41 42 42 42 40 39 39 40 39 39 39 40 40 40 39 38 38 38 37 37 37 37 37 37 37 37 36 36 35 35 36 36 36 36 35 34 33 34 34 34 33
11 12 13 12 12 11 12 12 12 14 16 20 25 29 31 33 35 36 37 37 38 40 44 43 41 40 38 39 39 39 39 39 39 39 40 40 39 38 38 38 37 37 37 37 37 37 38 38 38 37 36 36 37 37 37 37 36 36 35 35 35 35 35
9 11 11 10 10 10 11 12 12 13 13 16 22 28 31 33 35 35 36 38 39 42 43 42 40 38 38 38 38 38 39 40 39 39 40 39 39 39 39 39 38 37 37 37 37 38 38 38 38 38 38 38 38 38 38 38 38 37 36 36 36 36 35
9 10 10 11 11 11 12 12 13 14 14 15 22 27 29 32 34 34 36 38 40 41 40 39 39 37 37 37 37 38 40 40 40 40 40 39 39 39 39 40 39 38 37 38 38 38 38 39 39 40 40 40 40 39 39 39 39 38 37 37 36 36 35
7 7 9 10 11 10 11 12 13 15 15 16 22 27 29 31 33 34 35 37 39 39 38 37 37 37 37 37 37 38 40 41 41 40 40 40 39 39 40 40 40 39 38 39 39 39 40 40 41 41 42 42 41 41 40 40 39 39 38 37 37 36 36
5 7 8 8 8 9 11 13 14 15 15 16 20 25 28 30 33 34 36 37 38 38 38 38 38 38 38 37 37 39 40 41 41 40 40 40 40 40 41 40 40 39 39 39 40 41 42 42 42 41 42 42 42 42 41 40 39 39 39 38 37 37 37
7 8 9 9 10 11 12 14 15 15 16 16 18 22 26 28 31 32 33 35 36 38 40 40 39 40 39 38 40 41 41 40 40 39 39 39 39 40 40 40 39 38 38 40 41 42 42 42 41 41 41 42 42 42 41 40 40 40 40 40 39 38 37
8 9 9 10 11 11 12 14 16 16 15 14 15 19 24 26 29 31 33 34 36 38 39 38 38 39 39 40 41 40 39 40 39 39 39 39 40 40 40 40 39 38 39 40 42 42 41 40 40 41 41 41 41 41 40 41 41 42 42 42 40 39 38
9 9 10 10 11 10 10 12 13 13 13 14 16 20 24 27 30 32 33 34 36 38 38 38 38 38 39 41 40 37 38 39 39 38 39 40 40 40 40 39 38 39 40 41 42 41 40 39 40 41 42 41 41 41 41 42 43 43 44 43 42 40 39
9 10 10 10 8 8 9 11 12 13 14 15 18 21 26 29 29 30 32 35 38 38 37 38 38 38 39 39 36 36 38 39 38 39 39 40 41 41 41 40 39 40 40 41 41 40 39 40 41 42 41 40 40 41 42 43 44 44 45 44 43 41 40
10 10 9 7 7 7 9 10 11 13 15 15 19 25 32 34 32 34 37 40 40 37 36 37 38 38 38 36 36 38 39 39 39 40 40 41 41 40 40 40 41 41 42 41 40 39 40 41 42 41 41 40 41 42 43 43 43 45 45 44 43 43 41
9 9 8 7 7 8 9 9 10 11 14 17 23 29 32 34 34 36 38 37 35 35 36 37 38 37 37 36 37 39 39 39 39 40 40 40 40 39 40 41 42 43 42 41 40 39 40 41 41 41 41 42 42 42 42 43 43 43 44 43 43 43 42
6 7 7 7 7 8 8 8 9 9 11 17 22 24 24 26 29 30 29 30 32 33 35 36 35 36 35 35 36 37 37 38 39 39 39 40 39 39 40 41 41 42 41 40 40 41 41 42 41 41 42 42 42 40 41 43 42 41 41 42 42 43 42
5 5 6 6 6 8 8 8 10 11 11 14 17 20 22 25 26 25 25 28 31 32 34 34 33 34 33 34 35 37 38 39 38 38 39 39 39 39 40 40 41 42 40 39 39 41 41 41 41 41 42 41 40 39 41 41 38 37 39 40 41 42 42
4 5 6 6 6 7 8 8 11 13 13 14 17 21 23 25 25 25 25 26 28 29 31 31 31 32 33 34 36 38 39 39 39 39 39 39 39 39 41 42 42 42 40 39 39 39 40 40 40 41 41 40 40 41 41 38 34 34 37 39 41 42 42
4 4 5 6 7 7 8 7 7 11 14 15 17 21 24 24 25 26 24 24 26 27 28 29 30 32 33 35 37 38 39 40 39 38 38 38 39 40 41 41 42 41 41 40 39 38 39 39 39 39 39 39 40 42 40 35 32 33 36 38 40 42 42
5 4 5 6 7 7 9 8 4 6 11 13 14 17 20 23 25 24 22 23 26 26 25 27 30 32 35 37 38 37 38 38 38 38 39 40 42 43 42 42 42 40 39 39 38 37 36 36 36 37 38 39 40 41 40 35 32 33 35 37 40 42 43
5 6 6 8 10 11 11 11 7 3 3 6 11 16 20 22 23 22 21 23 24 24 26 31 34 36 38 37 35 35 36 37 39 41 42 44 44 43 42 41 39 37 37 37 36 34 32 34 35 35 36 37 38 39 40 37 34 33 35 37 40 43 44
4 5 6 8 12 13 14 15 14 11 11 7 4 13 20 23 22 20 20 20 20 24 31 35 35 34 33 31 31 33 36 38 40 43 44 44 42 39 37 36 35 35 35 34 33 31 31 33 35 35 35 36 36 37 39 38 36 34 35 37 41 44 46
3 4 6 8 12 14 13 14 14 15 16 15 9 3 13 19 19 17 17 17 21 28 30 27 24 25 25 26 29 32 35 38 40 41 41 39 37 35 34 33 32 33 33 32 31 31 32 33 34 34 35 34 34 36 37 37 38 37 36 37 42 46 48
5 6 7 8 11 13 12 11 11 13 17 19 18 13 4 6 10 12 14 17 23 27 24 19 19 21 22 24 27 30 33 36 38 38 37 36 35 34 33 32 32 33 33 33 33 32 32 34 34 33 32 31 31 33 34 35 38 39 38 39 42 46 50
8 8 8 9 10 12 13 11 10 13 18 21 21 20 16 10 5 1 5 9 12 15 19 23 23 22 23 26 29 31 33 34 35 35 35 36 36 36 35 35 35 35 34 35 34 33 33 34 33 32 30 28 27 29 32 34 36 38 39 41 42 46 51
9 9 9 11 12 14 14 13 11 13 18 21 21 21 20 19 16 12 9 10 11 9 12 20 22 24 26 29 30 33 34 34 34 36 36 36 36 36 36 36 35 34 35 37 37 36 35 35 34 32 29 28 28 30 32 35 37 39 40 41 43 46 50
9 10 11 12 13 15 15 14 13 13 15 18 21 21 20 20 18 16 15 15 13 9 6 9 14 19 24 27 30 33 33 32 33 35 36 37 37 38 37 37 36 35 36 36 37 36 35 33 33 33 31 31 32 31 30 32 36 40 41 41 44 48 48
7 8 10 11 13 15 16 13 12 13 13 14 17 19 19 20 19 18 18 19 17 13 9 6 6 8 11 14 19 24 28 31 32 33 34 35 36 37 36 36 36 36 35 35 34 33 32 30 30 30 31 32 32 30 29 31 34 38 41 43 45 48 49
7 7 9 10 12 15 15 13 12 12 12 12 15 17 17 17 18 19 20 20 19 18 15 13 12 11 11 11 11 11 14 20 24 27 31 33 35 35 34 35 37 37 37 39 39 35 33 31 30 31 32 30 29 28 27 26 28 33 38 43 46 46 46
7 8 8 10 12 13 13 11 10 10 11 12 15 17 18 18 18 18 19 19 19 19 18 17 16 15 14 14 14 13 11 12 14 17 21 26 31 35 38 38 39 39 41 45 48 47 43 40 39 40 38 33 31 31 29 29 32 34 35 39 43 44 44
7 8 9 10 12 13 13 12 11 11 11 13 16 17 18 19 20 20 20 19 19 18 18 17 16 15 14 14 13 13 12 10 11 13 16 20 24 29 34 37 37 36 35 37 42 47 49 47 44 42 40 36 36 38 39 39 41 41 37 38 41 43 44
7 8 10 11 12 12 13 13 12 12 13 15 17 17 17 18 20 20 20 19 18 17 17 17 15 14 12 12 11 11 10 9 10 11 14 19 21 22 25 27 29 28 26 27 30 36 42 43 38 34 35 36 35 35 38 40 41 41 41 42 43 42 43
8 9 9 11 12 11 11 12 12 12 13 16 18 18 18 18 19 18 18 17 16 15 14 14 13 11 10 9 9 9 8 8 8 10 12 15 18 19 20 20 19 18 18 19 22 25 31 34 32 30 34 38 38 39 41 42 42 42 44 44 44 43 43
Wind_Direction
200 201 202 202 204 204 207 206 203 203 205 205 203 204 205 206 207 207 207 207 208 210 209 207 207 207 207 208 209 211 212 212 212 212 212 214 216 217 218 220 220 222 224 225 228 231 235 239 239 237 236 236 237 238 237 237 238 238 238 241 241 236 231
197 204 204 201 203 206 208 206 203 204 205 206 205 203 203 204 205 206 207 208 208 210 210 208 207 208 208 209 210 211 212 212 212 212 212 214 216 217 218 220 221 224 227 229 231 233 234 237 238 238 236 235 236 237 236 235 236 235 236 239 237 231 229
200 205 203 202 205 206 206 202 202 204 206 207 205 203 203 204 205 206 207 207 208 210 210 209 209 208 209 209 210 211 212 213 213 212 213 214 215 216 217 219 222 224 228 230 232 233 234 235 236 237 236 235 236 236 234 234 235 234 234 236 234 230 229
205 206 202 205 206 207 205 201 202 204 205 207 205 204 204 205 206 206 206 207 208 209 210 210 209 208 209 209 209 211 212 213 213 213 214 215 215 216 216 219 221 223 226 230 232 232 232 232 233 235 235 234 234 234 233 232 233 232 233 234 232 230 231
212 206 202 205 206 207 204 201 204 203 204 207 207 206 206 207 206 205 206 208 209 211 212 211 210 209 209 209 209 211 212 213 213 214 214 215 215 215 215 218 220 221 224 228 230 230 230 229 229 231 231 231 232 232 231 232 232 231 231 232 231 229 230
216 205 201 204 204 205 203 202 204 203 204 205 205 206 207 206 205 204 207 208 210 213 213 212 211 210 209 209 210 211 212 212 213 213 214 214 214 214 216 218 220 220 222 225 227 227 227 227 227 228 229 230 230 230 230 231 230 229 230 230 230 229 229
218 204 203 209 206 203 203 204 204 203 205 206 204 206 206 205 204 205 207 208 209 211 211 211 212 211 210 209 210 210 211 211 212 212 213 214 214 215 216 218 219 220 221 223 224 225 224 225 225 226 228 229 229 229 229 230 229 229 229 229 229 229 229
218 206 206 210 208 204 203 203 204 203 203 203 203 204 204 204 205 206 207 208 209 209 210 212 212 211 210 209 209 210 210 211 211 212 213 213 214 215 216 217 219 219 219 220 222 223 223 223 224 225 227 227 228 229 229 229 229 229 228 228 228 227 228
219 213 213 213 208 205 203 203 203 201 200 200 200 201 201 202 203 205 207 207 207 208 211 213 212 211 210 208 209 210 210 210 211 211 212 212 213 214 215 217 218 218 218 219 220 221 222 223 223 223 224 225 227 228 228 228 228 228 229 228 227 226 227
218 218 222 216 208 204 204 203 198 197 198 198 199 200 200 201 203 205 206 205 205 209 212 212 212 211 208 208 209 209 209 210 210 211 211 211 212 213 214 216 217 217 217 218 219 220 221 222 222 222 223 223 225 226 225 226 227 228 228 228 228 227 227
214 223 227 217 206 202 200 197 193 196 198 196 198 200 199 201 203 204 204 204 205 209 212 211 210 209 208 207 207 207 208 209 210 211 211 211 211 212 214 215 216 217 216 217 218 220 221 221 221 221 221 222 223 224 224 224 225 226 227 227 228 228 228
211 218 221 212 206 201 197 196 197 197 197 197 198 199 200 201 202 202 203 204 206 209 210 209 209 208 207 207 206 207 208 209 209 210 210 210 211 211 213 215 215 215 215 215 217 219 220 221 221 220 221 223 224 223 224 224 223 224 226 227 227 227 228
227 225 224 216 208 203 197 197 201 199 197 198 198 199 200 201 200 201 202 204 206 207 208 207 207 207 207 206 206 207 208 208 209 210 209 210 210 211 213 214 214 214 213 214 216 218 220 221 221 221 222 223 223 223 224 222 221 222 224 225 226 225 226
255 249 243 228 212 205 198 199 203 202 200 198 196 198 199 201 202 201 202 203 203 204 205 205 205 205 206 205 206 208 208 209 210 209 209 210 210 211 213 213 214 213 213 213 216 218 220 220 221 221 221 222 223 223 223 221 219 219 220 222 223 224 225
249 244 241 232 217 206 200 202 204 202 201 197 193 195 196 199 202 201 203 204 202 202 204 203 202 203 204 204 206 207 207 208 209 209 209 209 210 211 212 213 213 212 212 213 215 218 220 220 220 220 220 221 222 222 221 219 218 218 218 219 219 220 223
252 249 241 236 229 216 206 207 206 204 201 195 192 194 194 196 198 199 202 202 201 203 204 202 201 202 202 205 207 206 205 206 207 207 207 208 209 210 211 212 212 211 211 213 216 218 218 219 220 220 220 220 220 220 219 218 218 219 220 219 218 218 220
252 252 248 240 236 230 221 216 212 205 198 195 196 195 193 195 197 198 201 201 201 203 202 200 201 202 204 207 206 203 203 205 205 205 206 207 208 209 210 210 210 210 211 213 215 217 217 217 219 220 221 221 220 219 219 219 219 220 220 219 217 217 218
245 247 249 245 240 237 229 223 216 206 200 199 198 195 194 196 195 196 200 201 202 203 200 199 201 203 205 207 204 201 203 203 203 204 205 206 207 207 208 208 209 210 211 213 214 215 215 217 219 220 221 221 221 221 220 220 220 220 219 217 216 216 218
251 253 254 248 239 232 225 221 215 209 207 203 197 197 197 195 193 196 200 200 201 199 196 198 201 203 205 204 201 201 202 201 201 203 205 206 207 206 206 207 208 210 211 212 213 213 214 217 219 220 220 220 221 222 222 222 222 220 219 216 214 215 218
268 272 274 259 241 235 228 222 218 214 212 209 205 204 202 198 197 200 201 199 197 196 195 198 200 202 203 202 201 202 202 200 201 203 204 206 206 205 206 207 208 210 211 211 211 211 213 216 218 219 220 221 222 223 224 224 223 221 218 214 213 214 216
285 284 283 273 261 253 238 222 216 214 212 212 209 205 203 203 203 202 199 196 195 195 196 198 200 202 202 201 201 201 200 200 202 202 204 206 205 205 206 208 209 210 210 210 210 211 213 215 216 218 219 221 222 223 225 226 224 221 217 213 213 213 214
303 306 298 290 278 264 252 233 217 209 207 206 202 197 199 202 202 198 196 196 195 195 197 198 200 202 201 200 201 201 201 201 201 201 203 204 204 205 207 208 210 211 210 210 211 212 213 214 216 218 219 220 221 222 226 227 224 220 217 213 212 210 210
297 305 301 295 285 275 274 260 231 211 197 190 189 192 196 198 195 192 192 195 195 195 196 198 201 201 200 200 201 201 201 201 200 201 202 203 204 206 207 209 211 211 210 210 211 212 212 213 216 218 218 219 219 221 225 226 223 220 216 212 210 206 205
301 299 297 304 311 314 318 308 257 212 191 183 187 194 194 192 189 189 190 191 193 195 197 200 204 203 201 203 203 202 202 201 200 201 201 203 205 207 208 209 211 211 210 210 211 212 213 214 216 218 219 218 219 221 223 224 222 219 215 210 208 204 201
326 317 306 324 343 338 337 342 317 205 185 178 184 190 190 189 187 187 189 191 192 194 198 204 206 205 204 206 205 203 202 201 201 202 202 205 208 209 209 210 211 211 211 211 213 214 214 214 216 218 219 219 219 221 221 221 221 218 212 209 206 201 200
342 335 329 347 2 3 9 24 41 77 135 166 183 186 186 186 185 186 192 194 191 194 202 207 209 208 208 208 205 202 201 201 202 203 205 208 209 210 210 210 210 209 210 211 214 215 215 216 217 219 221 220 219 219 219 218 218 215 210 207 203 200 200
358 1 0 3 8 14 28 42 51 51 40 38 171 187 184 182 183 189 194 193 195 203 208 210 211 211 211 208 204 202 202 203 205 207 208 210 211 211 212 211 209 209 209 209 211 213 214 216 218 221 223 221 218 218 218 217 215 211 207 204 202 201 199
44 40 35 28 21 23 32 41 45 44 36 33 42 153 187 184 183 188 189 192 206 214 214 213 213 213 212 209 206 205 205 206 208 210 211 211 210 210 211 211 210 209 208 207 208 210 213 216 218 220 223 221 218 217 216 216 215 210 204 202 203 202 197
50 45 42 43 34 31 37 41 42 41 35 35 42 48 71 182 190 193 193 203 218 220 216 215 216 215 213 210 208 209 210 211 212 211 211 211 209 208 209 209 208 208 207 205 205 206 211 215 217 219 221 220 218 217 216 214 213 209 205 203 203 201 197
48 44 43 47 43 40 42 45 45 44 40 38 41 43 43 41 33 268 221 238 251 241 225 219 217 214 211 210 209 212 214 215 215 214 213 211 208 206 207 205 204 205 205 204 203 204 208 212 214 215 217 216 214 215 213 209 207 208 207 205 203 200 197
45 45 45 47 47 46 49 53 53 50 45 39 36 38 40 40 37 28 3 339 329 300 244 227 220 213 210 209 210 212 214 215 215 214 214 212 209 207 206 204 202 201 202 203 203 204 206 208 208 208 210 210 209 210 207 202 200 204 206 206 203 200 198
38 38 40 43 44 42 45 53 56 54 50 42 36 35 37 38 40 33 16 6 1 346 298 252 234 223 217 214 213 214 214 214 214 214 213 212 210 209 208 205 202 201 202 203 205 208 209 208 204 202 203 204 207 206 199 192 195 200 201 201 200 199 199
36 32 33 37 40 39 40 44 44 43 46 42 37 37 38 37 37 31 22 18 14 6 357 343 305 272 254 241 231 225 219 216 215 213 212 212 211 211 211 209 206 206 205 205 206 210 212 211 207 204 202 202 201 197 189 185 189 193 194 193 194 195 196
40 36 34 36 41 44 45 45 41 37 37 33 30 34 38 38 35 30 25 21 16 12 11 10 2 350 337 325 308 281 251 236 229 221 214 211 211 211 211 210 210 210 210 209 208 207 208 209 210 209 208 204 194 183 176 176 182 187 189 190 191 190 190
49 48 42 40 45 49 50 50 49 45 37 25 21 23 28 31 31 30 29 26 22 22 22 19 14 9 2 352 344 335 318 291 269 250 232 221 215 213 214 213 213 214 217 216 214 211 209 208 208 210 210 204 192 180 170 168 177 187 191 192 192 190 188
53 54 50 48 52 54 54 52 48 44 37 27 23 25 26 26 27 29 29 26 24 27 30 30 28 26 21 14 6 355 340 317 293 272 255 242 231 225 222 219 217 219 224 226 224 220 216 213 211 210 207 201 195 191 183 176 180 188 192 193 194 194 193
54 56 53 52 56 59 58 55 48 43 38 33 32 33 31 29 29 29 29 28 25 25 28 32 37 40 36 28 21 7 350 330 305 283 263 252 247 242 236 230 226 226 230 234 234 229 223 220 217 212 205 200 195 189 183 181 185 190 191 190 191 194 196
67 69 67 62 62 63 63 60 56 53 50 46 42 38 34 30 27 26 27 29 27 24 26 30 37 42 37 24 12 358 346 331 312 301 290 274 263 256 249 243 239 239 240 240 239 235 229 226 222 213 204 198 188 177 176 184 191 192 189 187 189 191 194
Height
698 701 703 706 709 712 713 713 717 721 723 727 730 733 737 741 744 746 748 750 751 753 756 760 763 766 769 772 774 777 780 783 785 788 791 794 796 799 801 804 806 808 810 811 813 814 816 819 821 823 824 826 827 828 830 831 832 833 835 836 837 839 840
696 698 697 701 703 705 706 708 712 716 719 722 724 728 731 734 738 741 743 745 747 749 752 755 759 762 765 768 771 774 777 779 782 785 788 790 793 795 798 800 803 805 807 809 810 812 814 816 818 820 822 823 824 826 827 829 830 831 832 834 835 836 838
691 692 692 695 695 696 699 702 707 710 713 716 719 723 726 728 731 734 737 741 744 746 749 752 755 758 761 765 768 771 773 776 779 782 784 786 789 792 795 797 799 801 804 806 808 809 811 812 815 817 819 821 822 823 825 826 827 829 830 832 833 834 836
685 684 685 688 688 691 694 697 701 703 706 710 713 716 718 721 724 728 732 736 739 742 744 746 749 753 757 760 764 767 769 773 775 778 781 783 786 790 792 794 796 798 800 802 804 806 808 809 811 814 816 818 819 821 822 824 825 826 828 829 831 832 834
679 679 682 684 685 688 690 692 694 696 700 704 707 711 713 716 720 724 728 731 734 736 738 742 746 750 754 757 760 762 765 769 772 775 778 781 784 786 788 790 792 794 796 798 801 803 804 806 807 810 813 814 816 818 819 821 822 824 825 827 828 830 832
673 675 677 678 678 680 682 684 686 689 693 696 701 705 708 712 717 721 724 727 729 732 735 740 743 746 750 753 756 759 762 765 768 771 775 777 780 782 783 786 788 790 792 795 797 799 801 802 804 806 809 811 813 814 816 818 820 821 823 824 825 827 830
666 669 671 671 671 673 675 677 679 682 687 690 695 700 704 709 712 715 718 721 724 727 731 735 738 741 745 748 752 755 758 761 764 768 771 773 776 777 779 782 784 786 789 791 793 795 797 799 800 802 805 807 809 811 813 814 816 818 820 821 823 825 827
660 663 665 665 665 667 669 671 674 677 682 687 692 696 701 704 707 710 713 716 719 723 726 728 731 735 739 744 748 751 754 757 760 763 766 769 771 773 776 778 780 783 785 787 789 791 793 795 797 799 801 803 805 807 809 811 813 815 817 818 820 822 824
657 658 658 659 660 662 665 666 669 673 678 683 687 690 694 698 701 704 707 711 715 718 720 722 726 730 735 740 743 746 750 753 756 759 761 764 767 769 772 775 777 780 782 784 786 788 790 791 793 795 797 799 801 803 805 807 810 812 813 815 817 819 821
656 656 654 655 657 659 661 663 668 672 676 679 682 685 689 692 695 698 701 706 710 712 713 717 721 726 731 735 738 742 746 749 751 754 756 759 762 765 768 771 774 776 778 781 783 785 786 788 790 791 793 794 796 799 801 803 806 808 810 812 814 816 818
655 654 653 654 656 657 660 662 665 668 670 673 676 679 682 685 689 692 696 700 703 705 708 713 718 723 726 730 734 738 741 744 747 749 751 755 758 761 765 767 769 772 774 777 779 781 783 785 786 787 788 790 791 794 796 799 802 804 806 808 811 813 815
653 652 652 652 653 655 656 658 660 662 664 667 670 674 677 680 683 687 691 694 697 700 705 710 714 718 722 726 730 733 735 738 741 744 747 750 754 757 760 762 764 767 769 772 775 777 779 780 782 782 784 785 787 789 792 794 797 800 802 805 807 810 812
651 650 650 649 649 651 653 655 656 657 659 661 664 668 672 675 678 681 685 688 692 697 701 706 710 714 718 721 724 727 730 732 735 739 743 746 749 752 755 757 759 761 764 767 770 772 774 775 777 778 779 781 782 785 787 790 793 795 798 801 804 806 809
651 650 649 648 649 650 651 652 652 653 655 656 659 664 667 671 674 676 679 683 687 692 696 700 704 708 712 716 719 722 724 727 731 735 739 742 745 747 750 752 755 757 760 763 764 766 768 769 771 773 775 777 778 780 783 785 788 791 794 797 800 803 805
649 648 647 647 647 646 647 647 647 648 649 651 654 658 662 666 670 673 676 679 683 687 689 693 698 701 706 709 711 714 718 723 728 731 734 738 740 743 745 748 750 753 756 758 759 761 762 765 767 769 771 772 774 776 778 781 783 785 788 792 795 798 800
644 645 645 644 643 642 642 641 641 642 644 647 650 653 657 661 664 668 671 674 678 681 684 689 693 696 700 702 703 708 714 719 722 726 730 732 735 738 740 743 746 749 751 752 754 756 758 761 763 765 766 768 770 772 773 775 777 780 783 786 790 794 796
642 642 641 640 639 639 639 639 639 640 643 645 646 647 651 654 658 662 666 670 673 675 679 685 688 691 694 695 698 705 710 714 717 721 724 727 729 732 735 739 742 744 746 747 749 751 754 757 758 760 762 763 765 767 768 769 772 775 778 781 785 789 791
639 637 637 637 637 637 637 637 637 638 639 639 640 642 645 648 652 657 660 663 666 670 675 680 683 686 688 691 697 702 705 708 713 716 719 721 724 727 730 734 736 738 740 742 744 747 750 752 753 754 757 759 761 762 763 764 766 770 773 777 781 784 786
637 635 635 636 636 635 634 633 633 633 632 633 634 636 637 640 645 648 650 654 659 664 670 674 676 680 683 688 693 696 699 703 707 710 713 715 718 722 725 728 730 731 734 736 739 742 744 745 747 749 752 754 755 756 757 759 762 765 768 772 776 780 782
640 637 636 635 633 631 629 628 628 628 628 629 630 631 634 637 639 641 645 650 656 661 665 668 671 674 678 683 687 690 694 699 701 704 708 710 714 718 720 722 723 725 728 731 734 736 738 740 742 744 747 748 750 752 753 755 758 761 764 769 772 776 779
641 639 637 634 632 628 626 625 625 625 625 626 628 631 636 639 640 643 647 651 655 658 661 664 667 670 674 678 682 686 690 694 696 700 703 706 710 713 715 717 718 720 723 725 728 729 731 734 736 738 740 742 745 748 749 751 754 757 761 765 769 772 775
640 639 637 634 632 627 623 621 620 620 622 624 627 631 634 637 640 644 647 650 652 655 657 661 664 667 670 675 678 682 685 688 692 695 698 701 705 707 709 712 713 715 718 720 722 723 725 728 730 732 735 737 741 744 744 746 751 755 758 762 765 769 773
638 638 635 632 629 625 621 618 617 617 619 621 624 627 630 633 637 641 644 647 650 653 655 658 660 663 666 670 672 676 679 683 686 689 693 696 699 700 703 705 707 710 713 715 717 718 720 722 724 727 729 732 736 738 739 743 748 751 754 758 762 766 769
636 635 633 630 626 622 618 617 616 616 617 619 621 624 627 631 635 638 641 644 647 650 653 655 657 659 662 664 667 670 674 678 681 685 689 692 693 694 697 699 702 705 707 710 711 713 715 718 720 723 725 727 730 731 735 740 743 746 749 753 757 762 765
635 633 631 628 625 622 618 616 615 616 617 619 621 623 626 630 633 636 638 641 644 647 650 651 653 655 657 659 662 666 670 674 678 681 684 685 686 688 690 693 697 700 704 706 708 710 713 715 718 719 720 722 724 726 731 735 738 740 743 748 752 757 761
634 633 630 627 624 622 619 616 616 618 620 620 621 623 625 628 631 634 636 638 641 643 644 645 647 650 653 656 660 664 667 670 673 675 677 677 679 682 685 689 693 697 700 703 706 709 712 713 715 715 716 718 720 722 726 730 732 734 737 742 747 752 755
634 632 630 628 626 623 621 619 619 621 622 622 623 623 625 627 629 632 634 637 640 639 637 639 644 648 652 656 659 661 663 666 668 669 670 672 676 681 684 687 691 694 697 700 703 706 708 710 711 712 712 714 716 718 721 725 726 728 732 737 742 745 749
634 633 632 630 628 626 624 623 623 624 625 625 625 625 626 627 629 631 633 635 635 634 636 641 645 649 653 656 657 659 660 662 663 665 668 671 675 679 682 685 689 691 693 696 699 701 703 705 706 707 708 709 712 714 717 720 721 723 728 732 735 738 743
634 633 632 631 630 629 628 627 626 628 628 627 627 627 629 630 631 632 634 634 633 635 639 643 645 648 651 653 655 657 658 659 661 663 665 668 671 675 678 681 684 687 689 690 692 694 697 698 700 702 704 706 709 711 713 715 716 719 723 726 729 733 737
634 633 632 632 631 631 630 629 629 630 630 630 630 630 631 632 633 635 636 637 638 639 641 641 643 645 647 649 651 653 655 657 659 661 662 664 666 669 671 674 677 679 682 684 685 686 688 689 693 696 698 702 705 707 708 710 711 715 719 722 725 729 732
634 633 632 631 632 632 632 632 631 632 632 632 633 634 634 634 635 637 639 640 640 640 640 641 642 642 643 644 646 648 650 652 655 656 658 660 662 664 665 667 670 672 675 676 677 677 677 678 682 686 690 695 698 700 701 703 706 710 714 718 722 725 728
633 632 631 630 630 631 632 632 633 633 634 636 637 637 638 638 638 639 641 641 640 640 640 641 641 641 642 642 643 644 646 648 650 652 653 656 657 659 660 663 665 666 667 669 670 670 670 671 673 676 680 684 688 691 695 699 702 705 709 713 717 721 724
635 634 632 631 630 630 629 630 631 633 635 638 639 639 640 640 640 641 641 641 640 640 640 640 641 642 643 644 644 645 646 646 646 648 650 652 654 656 658 659 661 662 662 663 664 666 668 669 670 670 670 672 677 683 689 695 699 702 705 710 715 718 722
638 637 636 634 633 632 631 631 633 634 635 637 638 640 640 641 641 641 641 641 641 640 640 640 641 642 644 645 646 647 648 648 647 647 648 649 650 652 654 655 656 656 655 654 654 657 660 663 665 666 667 668 671 677 685 691 696 701 704 707 711 716 721
641 640 639 637 636 635 635 636 636 637 637 638 639 639 639 640 641 641 641 641 641 641 641 642 642 643 644 645 645 646 647 648 649 649 649 649 648 648 648 648 649 649 648 646 646 646 648 650 653 657 661 667 670 673 677 681 687 696 703 708 711 714 718
642 641 641 641 640 639 639 639 639 640 640 641 640 640 640 640 641 641 642 642 642 642 642 643 643 644 644 645 645 646 646 646 646 647 648 648 648 646 645 645 645 645 645 644 644 644 643 644 646 649 656 663 667 668 668 670 677 687 697 706 711 714 716
643 643 643 643 642 641 641 642 641 641 642 642 642 642 642 642 642 642 642 642 642 642 642 642 642 643 643 644 644 644 644 645 645 645 645 646 646 645 645 644 643 642 642 642 644 645 646 645 646 649 654 660 665 668 671 674 678 683 689 697 705 710 714
645 645 645 645 644 644 644 643 643 643 643 644 643 643 643 644 644 644 644 643 643 643 642 642 642 642 642 642 642 642 642 642 642 643 644 644 644 644 644 644 643 642 642 641 642 643 645 647 647 648 651 655 660 665 669 672 675 679 684 690 698 705 711